Wind_Speed
60 74 65 72 65 74 57 61 70 69 60 61 59 58 64 64 68 67 68 67 64 62 62 66 63 58 58 57 56 54 52 54 50 49 50 51 51 51
72 76 54 50 50 63 59 61 62 66 54 49 56 52 53 54 56 63 73 72 67 68 70 69 63 61 58 55 58 51 53 56 52 53 53 54 54 55
80 70 69 62 58 60 52 59 54 49 47 50 54 58 61 60 58 56 62 67 70 73 73 71 65 63 57 56 55 55 58 59 59 56 58 58 59 58
75 73 73 68 54 57 58 52 58 61 48 51 55 56 57 59 57 53 57 63 65 67 65 57 56 56 54 54 55 58 57 57 57 58 59 60 62 59
64 61 64 60 56 53 47 45 47 50 46 47 47 46 47 51 51 54 51 48 45 47 48 51 52 52 53 56 57 58 58 59 59 60 63 62 60 59
58 51 55 58 52 48 42 35 38 40 39 39 37 37 39 43 44 44 44 44 45 45 48 50 53 56 56 57 56 58 61 61 62 63 63 61 63 60
57 58 55 53 49 45 43 44 38 36 40 39 40 42 42 44 45 47 47 49 52 54 55 54 56 59 61 63 60 61 61 63 62 61 61 59 59 61
47 45 43 46 40 35 32 34 32 33 34 37 39 41 44 47 48 49 51 53 51 54 56 57 62 63 64 63 61 61 60 59 59 59 59 60 60 61
36 32 28 28 27 29 32 35 35 34 34 33 33 34 37 42 46 48 48 51 54 57 60 60 62 64 61 58 57 57 58 58 60 62 63 63 62 61
27 27 28 31 32 34 36 39 39 38 40 39 39 39 39 40 44 45 49 54 57 61 62 60 56 56 55 53 54 56 60 60 59 57 57 59 62 62
27 28 28 30 33 33 34 40 44 47 48 49 48 45 44 47 49 49 53 61 61 58 57 56 53 52 51 52 54 56 57 56 57 58 58 59 59 60
23 22 23 28 30 32 37 39 38 38 42 43 42 44 48 47 47 47 50 48 53 48 48 47 49 50 52 55 57 57 58 59 58 57 58 58 60 63
32 31 30 32 35 37 39 41 41 43 43 45 48 47 47 45 43 44 41 42 44 46 48 49 51 52 53 54 58 59 58 57 56 58 61 64 67 71
30 32 33 37 38 35 37 41 43 43 38 41 43 41 41 43 44 43 42 44 46 47 51 53 55 55 55 56 58 56 57 59 61 64 68 71 74 76
21 22 25 28 31 32 30 30 31 32 32 34 36 41 42 41 43 44 46 46 44 48 53 55 56 55 55 56 57 58 60 62 66 70 72 74 76 78
25 26 26 27 28 28 29 30 30 30 32 34 34 34 34 34 37 39 41 41 44 48 49 50 52 54 56 59 62 66 69 70 72 73 75 76 78 80
22 26 29 27 27 28 29 28 27 29 29 28 26 26 27 28 31 34 37 39 43 46 50 53 57 59 62 66 68 70 73 75 77 78 79 80 81 83
21 21 22 26 26 25 21 17 19 22 25 27 29 30 33 36 40 44 47 50 51 54 57 60 62 64 65 67 69 73 75 78 80 82 84 85 86 88
17 16 16 15 16 18 20 23 26 29 30 31 32 33 36 40 43 46 47 49 52 54 57 59 61 64 66 68 72 74 79 82 84 86 88 89 89 87
10 14 16 18 19 22 24 26 28 31 33 36 38 40 42 44 46 47 49 50 53 55 58 62 65 68 70 73 75 78 81 82 83 83 84 83 82 80
18 19 20 21 22 24 27 29 31 34 35 37 39 40 41 43 46 48 50 53 56 60 62 66 69 72 75 78 79 80 80 79 78 79 81 82 83 79
22 23 24 25 27 28 29 30 31 32 33 36 38 40 42 45 48 52 55 58 62 65 68 71 74 77 78 78 77 75 74 75 78 79 81 86 89 87
22 22 23 24 24 25 25 27 29 32 34 37 41 44 48 51 55 58 61 64 68 71 74 76 76 75 72 73 73 74 75 80 82 82 81 81 79 79
Wind_Direction
272 277 268 281 267 254 259 260 253 256 257 261 261 264 268 267 269 268 265 262 264 264 266 265 268 263 262 265 263 263 262 263 263 264 267 266 263 262
269 268 264 267 258 253 254 254 264 251 265 258 263 259 258 263 267 271 271 264 265 263 266 269 270 268 267 262 260 259 260 261 266 265 266 265 263 259
268 269 277 266 259 261 257 255 262 250 262 260 260 264 265 266 267 269 262 267 269 264 268 269 268 264 260 257 258 258 259 261 261 264 265 263 261 255
266 270 267 261 254 250 252 247 242 254 257 258 261 261 266 270 273 270 270 268 268 266 263 259 253 256 255 259 260 261 260 260 264 265 265 261 258 253
248 247 248 251 250 247 246 250 252 252 260 265 262 262 265 271 268 263 263 261 261 257 254 254 253 254 255 258 264 265 263 264 264 262 262 262 258 253
248 238 250 258 244 247 251 254 256 259 261 259 262 268 270 266 257 255 249 253 252 256 264 264 266 264 264 265 261 259 261 263 262 263 261 258 254 250
254 255 245 238 237 242 246 257 256 257 257 264 269 266 266 263 263 265 266 263 268 271 266 264 263 262 261 259 260 262 264 266 265 260 256 252 252 252
235 231 235 232 234 237 246 250 250 253 255 255 257 262 262 262 262 265 266 269 269 266 263 262 262 263 263 263 262 262 261 261 260 263 261 257 255 255
226 235 232 233 239 241 247 248 241 243 249 253 256 258 260 262 263 263 268 270 267 262 259 260 260 260 262 262 261 260 261 262 260 259 258 258 260 259
238 233 237 236 240 243 246 248 245 250 251 258 261 262 261 262 263 263 270 263 261 263 264 265 260 258 258 260 262 262 261 261 261 261 262 264 264 262
248 244 245 248 254 257 258 251 254 255 260 259 261 261 263 269 267 270 272 267 261 258 257 258 259 262 263 262 262 262 262 262 263 263 262 261 262 265
267 268 270 269 262 263 262 261 263 267 261 266 269 268 267 265 266 266 263 260 260 259 260 261 262 263 265 265 265 263 263 262 260 262 265 269 271 273
264 267 268 269 268 269 268 268 267 267 271 271 267 264 264 263 259 255 257 260 261 263 267 266 265 264 263 262 262 262 262 265 268 271 272 273 274 274
267 267 267 263 266 269 269 266 264 264 265 264 259 262 262 257 255 262 267 267 265 265 265 265 264 262 260 260 262 267 268 271 273 274 275 276 277 279
265 266 268 266 264 267 274 268 263 263 267 267 267 265 261 261 264 265 267 267 271 273 270 267 265 266 267 268 268 271 273 276 277 278 279 279 280 280
252 255 253 257 259 263 268 265 267 270 270 267 267 271 272 271 271 272 273 275 275 273 270 270 270 271 272 273 274 275 277 278 278 278 278 279 279 280
263 264 258 262 264 263 263 265 272 278 282 284 277 270 269 272 274 275 275 276 274 275 276 276 276 276 277 278 279 279 279 279 279 280 281 281 281 281
267 264 260 259 260 266 271 277 278 280 279 276 275 277 279 279 278 278 278 279 280 280 280 280 280 280 280 281 282 283 283 283 284 285 284 284 284 285
268 260 261 265 267 271 276 277 281 281 281 281 281 280 280 278 279 280 281 282 283 283 284 285 285 284 284 284 284 285 286 286 285 286 286 287 288 288
283 283 278 280 282 282 283 282 281 282 282 281 281 282 283 284 285 285 286 286 286 286 286 286 287 287 288 288 288 289 288 289 290 290 289 288 287 286
289 288 286 284 281 281 284 286 285 284 284 286 287 288 287 287 287 289 290 290 290 290 291 292 292 292 291 291 291 291 291 291 290 290 289 289 288 287
281 282 280 281 284 286 286 286 287 288 288 288 289 289 290 291 292 293 293 294 294 294 294 294 293 294 294 294 294 293 292 291 291 292 293 293 292 291
276 279 282 284 284 285 287 288 289 292 293 294 295 296 297 297 297 297 297 297 296 296 296 296 296 296 295 294 294 294 294 294 294 294 294 293 293 294
Height
5657 5657 5657 5657 5651 5654 5658 5659 5663 5667 5670 5673 5675 5676 5677 5679 5681 5682 5683 5683 5684 5683 5683 5682 5683 5681 5682 5683 5683 5684 5685 5686 5686 5686 5686 5687 5686 5687
5642 5640 5640 5641 5641 5645 5644 5645 5646 5648 5654 5657 5661 5659 5659 5661 5661 5664 5666 5665 5667 5666 5666 5667 5667 5667 5666 5667 5668 5668 5670 5670 5671 5672 5672 5672 5672 5673
5623 5625 5626 5626 5625 5628 5629 5632 5632 5635 5636 5638 5640 5643 5645 5644 5644 5643 5645 5648 5649 5648 5647 5648 5649 5650 5651 5651 5651 5652 5653 5654 5655 5655 5656 5656 5656 5657
5603 5605 5607 5614 5610 5612 5612 5614 5615 5620 5621 5622 5625 5627 5627 5628 5629 5629 5628 5629 5629 5628 5629 5629 5631 5633 5635 5636 5636 5636 5636 5637 5638 5639 5639 5640 5639 5640
5582 5585 5590 5594 5595 5598 5596 5597 5601 5605 5607 5609 5610 5610 5610 5609 5612 5612 5612 5613 5615 5615 5616 5619 5617 5617 5619 5619 5621 5621 5621 5621 5622 5622 5622 5621 5622 5624
5562 5564 5569 5576 5578 5580 5581 5582 5586 5589 5593 5597 5596 5595 5595 5595 5598 5600 5600 5600 5601 5602 5603 5604 5605 5604 5604 5603 5603 5603 5603 5604 5604 5605 5604 5605 5605 5606
5548 5551 5553 5556 5560 5563 5565 5568 5573 5574 5578 5581 5582 5584 5584 5587 5587 5588 5589 5589 5589 5589 5588 5587 5588 5587 5587 5586 5585 5585 5586 5586 5588 5587 5589 5589 5590 5590
5534 5535 5536 5540 5544 5547 5550 5557 5560 5563 5566 5569 5570 5571 5572 5574 5574 5575 5574 5573 5572 5572 5572 5572 5572 5571 5571 5571 5568 5567 5568 5569 5570 5571 5572 5573 5575 5575
5518 5520 5524 5527 5532 5534 5541 5546 5549 5553 5555 5557 5557 5556 5557 5559 5561 5559 5560 5560 5559 5557 5555 5554 5552 5554 5554 5553 5551 5551 5551 5552 5553 5554 5556 5558 5559 5559
5506 5510 5514 5518 5522 5526 5533 5536 5539 5541 5544 5545 5544 5543 5545 5546 5546 5546 5544 5543 5543 5542 5542 5541 5537 5536 5536 5537 5536 5536 5536 5537 5537 5538 5540 5541 5541 5543
5497 5501 5505 5509 5513 5516 5519 5523 5526 5529 5532 5531 5530 5530 5530 5529 5531 5531 5531 5529 5524 5522 5522 5523 5523 5523 5524 5522 5521 5521 5522 5521 5521 5523 5523 5522 5523 5523
5490 5491 5495 5499 5501 5503 5507 5512 5513 5515 5517 5517 5516 5514 5514 5513 5514 5512 5513 5511 5513 5512 5510 5509 5509 5509 5509 5509 5508 5507 5506 5505 5505 5504 5504 5503 5503 5502
5481 5482 5483 5486 5489 5493 5496 5498 5500 5501 5502 5501 5500 5499 5501 5500 5499 5501 5500 5497 5497 5499 5496 5497 5496 5496 5494 5495 5493 5492 5489 5487 5487 5485 5485 5484 5483 5481
5469 5471 5473 5477 5480 5482 5484 5485 5487 5487 5485 5488 5488 5487 5487 5486 5487 5487 5485 5485 5485 5484 5483 5483 5483 5482 5480 5480 5479 5472 5471 5469 5468 5466 5465 5464 5460 5456
5458 5460 5463 5466 5469 5471 5471 5471 5474 5475 5476 5474 5475 5476 5474 5472 5472 5471 5472 5472 5471 5470 5470 5469 5469 5468 5466 5464 5463 5458 5455 5452 5447 5446 5444 5442 5437 5432
5451 5453 5455 5457 5458 5461 5463 5464 5463 5462 5464 5464 5464 5460 5458 5458 5460 5461 5460 5458 5456 5455 5456 5455 5454 5452 5449 5446 5444 5440 5435 5432 5428 5424 5422 5419 5414 5408
5445 5445 5446 5447 5449 5451 5453 5454 5453 5453 5451 5449 5449 5449 5450 5450 5450 5449 5447 5445 5443 5441 5440 5438 5437 5435 5432 5428 5424 5417 5412 5407 5402 5399 5395 5393 5388 5380
5438 5438 5439 5440 5442 5443 5442 5439 5440 5441 5442 5442 5442 5442 5441 5440 5439 5437 5435 5432 5429 5426 5423 5421 5418 5415 5411 5406 5401 5393 5385 5380 5375 5370 5366 5364 5361 5352
5429 5430 5431 5431 5432 5432 5433 5434 5434 5435 5434 5434 5433 5432 5430 5428 5426 5423 5420 5417 5414 5410 5406 5402 5398 5394 5390 5385 5379 5372 5362 5356 5350 5345 5337 5332 5330 5324
5424 5424 5425 5425 5426 5426 5427 5427 5427 5427 5426 5425 5423 5421 5418 5415 5412 5409 5406 5402 5398 5393 5389 5383 5378 5373 5367 5362 5357 5348 5337 5329 5320 5315 5308 5303 5300 5295
5417 5418 5418 5419 5419 5419 5419 5419 5418 5417 5416 5414 5411 5409 5406 5403 5399 5395 5391 5386 5381 5376 5370 5363 5356 5350 5342 5336 5331 5322 5312 5302 5294 5287 5281 5274 5267 5271
5411 5412 5412 5412 5412 5412 5411 5410 5408 5407 5405 5403 5401 5398 5394 5390 5385 5381 5375 5369 5363 5356 5349 5342 5333 5325 5316 5309 5303 5297 5288 5279 5270 5263 5254 5242 5231 5231
5405 5405 5405 5404 5404 5403 5402 5401 5400 5398 5396 5393 5389 5385 5380 5375 5370 5363 5357 5350 5343 5335 5327 5318 5309 5300 5292 5284 5278 5273 5265 5254 5246 5241 5229 5215 5206 5197